Home > Weather > York > Past weeks

Flag for United Kingdom Past Weather in York, England, United Kingdom — Yesterday and Last 2 Weeks

Now
54 °F

Passing clouds.


Feels Like: 51 °F
Forecast: 52 / 61 °F
Wind: 9 mph from Northwest

Location: Linton-On-Ouse

Current Time: Jun 26, 2016 at 2:01:44 AM

Latest Report: Jun 26, 2016 at 12:50 AM


Visibility: 4 mi

Pressure: 30.01 "Hg

Humidity: 94%

Dew Point: 52 °F

Location of YorkLocation

Past Weather in York — Graph

°F

York Temperature Yesterday

Maximum temperature yesterday: 68 °F (at 2:50 PM)
Minimum temperature yesterday: 50 °F (at 3:50 AM)
Average temperature yesterday: 58 °F

High & Low Weather Summary for the Past Weeks

 TemperatureHumidityPressure
High75 °F (Jun 23, 3:50 PM)100% (Jun 11, 1:50 AM)30.18 "Hg (Jun 11, 1:50 AM)
Low48 °F (Jun 19, 2:50 AM)46% (Jun 21, 2:50 PM)29.36 "Hg (Jun 14, 3:50 PM)
Average59 °F79%29.81 "Hg
* Reported Jun 11 12:50 AM — Jun 26 12:50 AM, York, Weather by CustomWeather, © 2016

Note: Actual official high and low records may vary slightly from our data, if they occured in-between our weather recording intervals... More about our weather records

Advertising

York Weather History for the Previous 24 Hours

Scroll right to see more
 ConditionsComfort  
Time TempWeatherWind HumidityBarometerVisibility
12:50 AM
Sun, Jun 26
54 °FPassing clouds.9 mph94%30.01 "Hg4 mi
11:50 PM
Sat, Jun 25
55 °FOvercast.6 mph88%30.01 "HgN/A
10:50 PM57 °FOvercast.3 mph88%30.01 "HgN/A
9:50 PM57 °FOvercast.6 mph88%30.01 "HgN/A
8:50 PM59 °FOvercast.5 mph82%30.01 "HgN/A
7:50 PM61 °FPartly sunny.3 mph72%30.01 "HgN/A
6:50 PM63 °FPartly sunny.5 mph73%29.98 "HgN/A
5:50 PM59 °FPartly sunny.5 mph82%29.98 "HgN/A
3:50 PM66 °FScattered clouds.12 mph60%29.98 "HgN/A
2:50 PM68 °FPartly sunny.8 mph53%29.98 "HgN/A
12:50 PM66 °FScattered clouds.5 mph46%29.98 "HgN/A
11:50 AM64 °FPassing clouds.5 mph52%29.98 "HgN/A
10:50 AM63 °FPassing clouds.6 mph56%30.01 "HgN/A
9:50 AM61 °FPartly sunny.3 mph68%30.01 "HgN/A
8:50 AM57 °FSunny.1 mph77%30.01 "HgN/A
7:50 AM55 °FPassing clouds.3 mph82%30.01 "HgN/A
6:50 AM54 °FPartly sunny.5 mph82%30.01 "HgN/A
5:50 AM52 °FOvercast.5 mph88%29.98 "HgN/A
4:50 AM50 °FPassing clouds.3 mph94%29.98 "HgN/A
3:50 AM50 °FPassing clouds.No wind94%29.98 "HgN/A
2:50 AM52 °FPassing clouds.2 mph88%29.98 "HgN/A
Weather by CustomWeather, © 2016

See weather overviewHow to use our weather pages